Location: Litvinovka
(48.6667°N, 34.3500°E)
Time: 03:44:53
(UTC+00:00)

USA 186 - Pass Details

Date: 18 September 2020
Orbit: 261 x 425 km, 96.9° (Epoch: 12 October)

Event Time Altitude Azimuth Distance (km) Brightness Sun altitude
Exits shadow 17:17:52 15° 173° (S) 1,184 3.8 -15.3°
Maximum altitude 17:20:21 76° 257° (WSW) 427 1.8 -15.6°
Drops below altitude 10° 17:23:35 10° 345° (NNW) 1,511 5.1 -16.1°
Sets 17:25:39 0° 347° (NNW) 2,396 6.1 -16.5°
